This is the latest recevied weather packets stored in our database for station/object WC4PEM-13. If no packets are shown the sender has not sent any weather packets the latest 1 day(s).
| Time | Temp. | Humidity | Pressure | Rain* | Wind** | Luminosity | Snow |
|---|---|---|---|---|---|---|---|
| 1836274768 | 22.78° C | 93% | 1015.8 hPa | 0 mm | 1.34 m/s, 341° | - | - |
| 1836274468 | 22.78° C | 93% | 1015.9 hPa | 0 mm | 1.34 m/s, 342° | - | - |
| 1836274318 | 22.78° C | 93% | 1015.8 hPa | 0 mm | 1.34 m/s, 347° | - | - |
| 1836274168 | 22.78° C | 93% | 1016 hPa | 0 mm | 1.34 m/s, 22° | - | - |
| 1836273868 | 22.78° C | 93% | 1015.9 hPa | 0 mm | 1.34 m/s, 15° | - | - |
| 1778041353 | 19.44° C | 84% | 1016.4 hPa | 0 mm | 1.34 m/s, 84° | - | - |
| 1778041047 | 19.44° C | 84% | 1016.3 hPa | 0 mm | 1.34 m/s, 84° | - | - |
| 1778040748 | 19.44° C | 84% | 1016.5 hPa | 0 mm | 0.89 m/s, 93° | - | - |
| 1778040448 | 19.44° C | 83% | 1016.5 hPa | 0 mm | 0.89 m/s, 85° | - | - |
| 1778040148 | 19.44° C | 83% | 1016.4 hPa | 0 mm | 0.89 m/s, 93° | - | - |
| 1778039848 | 19.44° C | 83% | 1016.6 hPa | 0 mm | 1.34 m/s, 93° | - | - |
| 1778039548 | 20° C | 83% | 1016.5 hPa | 0 mm | 1.34 m/s, 93° | - | - |
| 1778039248 | 20° C | 83% | 1016.5 hPa | 0 mm | 1.34 m/s, 88° | - | - |
| 1778038948 | 20° C | 83% | 1016.8 hPa | 0 mm | 1.34 m/s, 93° | - | - |
| 1778038648 | 20° C | 82% | 1016.7 hPa | 0 mm | 1.34 m/s, 90° | - | - |
| 1778038348 | 20° C | 82% | 1016.8 hPa | 0 mm | 0.89 m/s, 90° | - | - |
| 1778038048 | 20° C | 81% | 1016.8 hPa | 0 mm | 1.34 m/s, 93° | - | - |
| 1778037748 | 20° C | 81% | 1016.8 hPa | 0 mm | 1.34 m/s, 88° | - | - |
| 1778037448 | 20° C | 81% | 1016.8 hPa | 0 mm | 0.89 m/s, 88° | - | - |
| 1778037148 | 20° C | 80% | 1016.7 hPa | 0 mm | 0.89 m/s, 86° | - | - |
| 1778036848 | 20.56° C | 80% | 1016.7 hPa | 0 mm | 0.89 m/s, 76° | - | - |
| 1778036548 | 20.56° C | 79% | 1016.8 hPa | 0 mm | 0.89 m/s, 86° | - | - |
| 1778036248 | 20.56° C | 79% | 1016.7 hPa | 0 mm | 0.89 m/s, 61° | - | - |
| 1778035948 | 20.56° C | 79% | 1016.6 hPa | 0 mm | 0.89 m/s, 86° | - | - |
| 1778035648 | 20.56° C | 78% | 1016.8 hPa | 0 mm | 0.89 m/s, 83° | - | - |
* Rain latest hour (hover to see other rain measurements)
** Current wind speed in m/s (hover to see current wind gust speed)